CPX787 Details

Departure: Chek Lap Kok International (VHHH)
Arrival: Kingsford Smith International Airport (YSSY)
Route: OCEAN V5 SABNO A583 IBOBI A583 ZAM A461 BUTPA A461 DN J251 TN T74 ENPAG H319 TARAL Y59 RIVET


Current Weather Information
VHHH 232330Z 09016KT 9999 FEW010 SCT030 26/23 Q1011 NOSIG
YSSY 232330Z 31009KT CAVOK 19/11 Q1023 NOSIG